W9GWP Weather Reports


Display with metric or nautical units.
time (UTC)temp
F
wind
direction
speed
MPH
gust
MPH
rain 1hr
in
rain 24hr
in
rain mn
in
humidity
%
barometer
mb
20260831053450 74 90 0.0 3.0 0.00 0.00 0.00 90 1041.1
20260831051949 74 106 0.0 5.0 0.00 0.00 0.00 91 1041.2
20260831050448 73 120 3.0 4.0 0.00 0.00 0.00 92 1041.1
20260831044947 73 82 1.0 3.0 0.00 0.41 0.41 92 1041.3
20260831043444 73 102 2.0 4.0 0.00 0.41 0.41 92 1041.3
20260831041939 73 106 0.0 3.0 0.00 0.41 0.41 92 1041.6
20260831040435 73 107 4.0 5.0 0.00 0.41 0.41 93 1041.3
20260831034932 73 126 0.0 3.0 0.00 0.41 0.41 94 1041.7
20260831033430 73 120 0.0 3.0 0.00 0.41 0.41 94 1041.7
20260831031926 73 117 0.0 2.0 0.00 0.41 0.41 93 1042.0
20260831030425 73 99 0.0 0.0 0.00 0.41 0.41 93 1042.2
20260831024924 73 255 1.0 1.0 0.00 0.41 0.41 92 1042.2
20260831023423 73 201 3.0 4.0 0.00 0.41 0.41 92 1042.2
20260831021923 73 160 1.0 3.0 0.00 0.41 0.41 92 1042.1
20260831020419 72 209 0.0 3.0 0.00 0.41 0.41 93 1042.2
20260831014916 72 217 2.0 3.0 0.00 0.41 0.41 93 1042.4
20260831013414 72 200 0.0 3.0 0.00 0.41 0.41 93 1042.3
20260831011909 72 180 0.0 2.0 0.00 0.41 0.41 93 1042.1
20260831010405 73 253 0.0 2.0 0.00 0.41 0.41 93 1042.1
20260831004903 73 165 3.0 3.0 0.00 0.41 0.41 92 1041.9
20260831003357 72 216 2.0 4.0 0.00 0.41 0.41 92 1042.0
20260831001857 72 157 0.0 5.0 0.00 0.41 0.41 94 1041.8
20260831000355 72 186 0.0 2.0 0.00 0.41 0.41 94 1041.2
20260830234856 72 98 0.0 4.0 0.00 0.41 0.41 94 1041.2
20260830233354 72 82 0.0 2.0 0.00 0.41 0.41 93 1041.3
20260830231853 72 97 3.0 3.0 0.00 0.41 0.41 93 1041.7
20260830230349 72 243 1.0 4.0 0.02 0.41 0.41 92 1041.9
20260830224844 72 261 0.0 2.0 0.05 0.41 0.41 92 1042.0
20260830223343 73 200 0.0 2.0 0.02 0.40 0.40 91 1042.1
20260830221844 73 90 0.0 2.0 0.07 0.39 0.39 89 1042.2
20260830220341 74 187 1.0 3.0 0.00 0.38 0.38 87 1042.3
20260830214840 75 180 1.0 4.0 0.00 0.38 0.38 86 1042.2
20260830213336 75 189 2.0 5.0 0.00 0.38 0.38 86 1041.9
20260830211832 75 184 2.0 3.0 0.00 0.38 0.38 88 1042.0
20260830210327 75 243 0.0 1.0 0.00 0.38 0.38 89 1042.0
20260830204826 74 186 1.0 2.0 0.00 0.38 0.38 89 1042.1
20260830203322 74 285 0.0 3.0 0.00 0.38 0.38 89 1042.4
20260830201818 74 105 0.0 2.0 0.00 0.38 0.38 91 1042.4
20260830200313 74 190 0.0 4.0 0.00 0.38 0.38 90 1042.7
20260830194812 73 240 1.0 4.0 0.00 0.38 0.38 90 1041.9
20260830193307 73 246 2.0 4.0 0.00 0.38 0.38 91 1041.9
20260830191805 73 241 4.0 6.0 0.02 0.37 0.37 90 1041.6
20260830190300 72 225 4.0 5.0 0.42 0.35 0.35 92 1041.6
20260830184801 72 209 0.0 3.0 0.05 0.28 0.28 93 1041.7
20260830183301 72 206 2.0 6.0 0.09 0.27 0.27 92 1041.8
20260830181800 78 202 10.0 13.0 0.07 0.21 0.21 80 1042.5
20260830180255 80 183 3.0 6.0 0.00 0.20 0.20 72 1041.2
20260830174750 80 200 5.0 6.0 0.00 0.20 0.20 72 1040.7
20260830173246 78 261 4.0 8.0 0.00 0.20 0.20 74 1040.9
20260830171741 78 229 3.0 7.0 0.00 0.20 0.20 74 1040.8
20260830170242 79 212 3.0 6.0 0.00 0.20 0.20 74 1040.8
20260830164739 80 8 1.0 3.0 0.00 0.20 0.20 73 1040.8
20260830163238 81 225 5.0 8.0 0.00 0.20 0.20 71 1041.0
20260830161736 80 270 0.0 2.0 0.00 0.20 0.20 74 1041.1
20260830160231 79 195 3.0 10.0 0.00 0.20 0.20 73 1041.1
20260830154730 79 222 3.0 6.0 0.00 0.20 0.20 75 1040.9
20260830153228 78 258 3.0 7.0 0.00 0.20 0.20 77 1041.4
20260830151728 76 231 2.0 7.0 0.00 0.20 0.20 78 1041.0
20260830150228 75 186 1.0 6.0 0.00 0.20 0.20 81 1041.1
20260830144723 74 71 2.0 7.0 0.00 0.20 0.20 83 1041.1
20260830143219 73 166 0.0 5.0 0.00 0.20 0.20 85 1041.4
20260830141717 71 151 0.0 6.0 0.00 0.20 0.20 88 1041.4
20260830140214 70 257 0.0 4.0 0.00 0.20 0.20 90 1041.7
20260830134711 69 103 0.0 3.0 0.00 0.20 0.20 93 1041.6
20260830133209 67 325 0.0 4.0 0.00 0.20 0.20 95 1041.7
20260830131705 67 157 3.0 3.0 0.00 0.20 0.20 95 1041.8
20260830130200 67 225 0.0 2.0 0.00 0.20 0.20 95 1042.1
20260830124658 67 157 0.0 4.0 0.07 0.17 0.17 94 1042.3
20260830123159 67 180 0.0 3.0 0.02 0.16 0.16 93 1041.9
20260830121658 68 219 3.0 3.0 0.40 0.13 0.13 91 1042.6
20260830120155 69 198 1.0 3.0 0.00 0.06 0.06 89 1042.7
20260830114654 69 245 2.0 3.0 0.00 0.06 0.06 89 1042.4
20260830113150 69 180 2.0 3.0 0.02 0.05 0.05 88 1042.3
20260830111649 70 228 2.0 6.0 0.05 0.05 0.05 86 1041.6
20260830110147 71 248 0.0 6.0 0.00 0.04 0.04 81 1041.8
20260830104645 72 233 0.0 3.0 0.00 0.04 0.04 79 1041.6
20260830103142 72 180 0.0 2.0 0.00 0.04 0.04 80 1041.9
20260830101638 72 240 0.0 2.0 0.00 0.04 0.04 78 1041.9
20260830100138 72 240 3.0 6.0 0.00 0.04 0.04 78 1041.7
20260830094636 72 191 0.0 4.0 0.00 0.04 0.04 79 1041.3
20260830093134 71 225 4.0 4.0 0.00 0.04 0.04 78 1041.1
20260830091632 71 221 4.0 7.0 0.00 0.04 0.04 78 1041.2
20260830090133 71 201 0.0 5.0 0.00 0.04 0.04 78 1041.2
20260830084629 70 195 0.0 3.0 0.00 0.04 0.04 82 1041.3
20260830083126 70 100 0.0 5.0 0.00 0.04 0.04 81 1041.3
20260830081624 70 248 0.0 5.0 0.00 0.04 0.04 82 1041.4
20260830080125 68 264 0.0 4.0 0.00 0.04 0.04 86 1041.5
20260830074621 69 334 0.0 2.0 0.19 0.04 0.04 86 1041.8
20260830073120 72 199 2.0 3.0 0.00 0.00 0.00 77 1042.4
20260830071616 72 221 2.0 6.0 0.00 0.00 0.00 77 1042.3
20260830070116 72 173 0.0 3.0 0.00 0.00 0.00 77 1042.5
20260830064613 72 262 0.0 5.0 0.00 0.00 0.00 77 1042.3
20260830063108 72 243 0.0 4.0 0.00 0.00 0.00 77 1042.4
20260830061603 72 163 2.0 4.0 0.00 0.00 0.00 77 1042.7
20260830060058 73 210 2.0 4.0 0.00 0.00 0.00 76 1042.6
20260830054556 73 212 0.0 4.0 0.00 0.00 0.00 77 1042.7